sat.trackr.live / text

‹ back to catalog

STARLINK-36095

NORAD 66871 · 2025-281Z

PAYLOAD ACTIVE UNKNOWN

§ Identity

Operator
Country
US
Launch date
2025-12-02
Launch site
AFETR
Launch vehicle
Mass (kg)
RCS (m²)

Purposes: comms

External: N2YO · Heavens-Above · Gunter

§ Orbital elements

Epoch: 2026-05-25T01:22:40.439136Z

Period
94.27 min
Inclination
42.9986°
Eccentricity
0.0001486
Mean motion
15.27601739 rev/d
Perigee alt
482.0 km
Apogee alt
484.0 km
Semi-major
6,861.1 km
B*
7.2445e-4
RAAN
272.3014°
Arg perigee
280.8806°
Mean anomaly
79.1878°
Rev number
2,784

§ Raw data

STARLINK-360951 66871U 25281Z   26145.05741249  .00019740  00000+0  72445-3 0  99912 66871  42.9986 272.3014 0001486 280.8806  79.1878 15.27601739 27840

JSON: /api/v1/satellites/66871 · /tle

For live sub-satellite position, see the globe view (requires WebGL).

§ Visibility from observer

Set your observer location to see the next 7 days of passes ≥ 10°. The values pass through the URL so the page stays shareable.

No JS? Fill the form by hand. The geolocation button needs JavaScript.